DW7980 Weather Reports


Display with metric or nautical units.
time (UTC)temp
F
wind
direction
speed
MPH
gust
MPH
rain 1hr
in
rain 24hr
in
rain mn
in
humidity
%
barometer
mb
20260902082542 58 0 0.0 2.0 0.00 0.00 0.00 82 1011.6
20260902082039 58 0 0.0 2.0 0.00 0.00 0.00 82 1011.6
20260902081557 58 0 0.0 2.0 0.00 0.00 0.00 82 1011.6
20260902081038 58 0 0.0 3.0 0.00 0.00 0.00 81 1011.6
20260902080539 58 176 1.0 3.0 0.00 0.00 0.00 81 1011.6
20260902080105 58 176 0.0 2.0 0.00 0.00 0.00 81 1011.6
20260902075539 59 0 0.0 1.0 0.00 0.00 0.00 80 1011.6
20260902075043 59 0 0.0 1.0 0.00 0.00 0.00 80 1011.6
20260902074558 59 0 0.0 0.0 0.00 0.00 0.00 80 1011.6
20260902074040 60 0 0.0 0.0 0.00 0.00 0.00 80 1011.6
20260902073538 60 0 0.0 1.0 0.00 0.00 0.00 79 1011.7
20260902073100 60 0 0.0 2.0 0.00 0.00 0.00 80 1011.7
20260902072539 60 0 0.0 2.0 0.00 0.00 0.00 80 1011.7
20260902072039 60 0 0.0 3.0 0.00 0.00 0.00 80 1011.8
20260902071557 60 0 0.0 3.0 0.00 0.00 0.00 80 1011.8
20260902071042 60 173 1.0 4.0 0.00 0.00 0.00 80 1011.8
20260902070538 60 165 1.0 4.0 0.00 0.00 0.00 79 1011.9
20260902065540 60 0 0.0 2.0 0.00 0.00 0.00 78 1012.0
20260902065043 60 0 0.0 2.0 0.00 0.00 0.00 78 1012.0
20260902064603 60 0 0.0 2.0 0.00 0.00 0.00 78 1012.1
20260902064038 60 196 0.0 2.0 0.00 0.00 0.00 78 1012.1
20260902063538 60 0 0.0 2.0 0.00 0.00 0.00 77 1012.2
20260902063056 60 0 0.0 1.0 0.00 0.00 0.00 77 1012.2
20260902062541 60 196 0.0 2.0 0.00 0.00 0.00 77 1012.2
20260902062038 61 0 0.0 3.0 0.00 0.00 0.00 76 1012.2
20260902061607 61 196 0.0 3.0 0.00 0.00 0.00 76 1012.2
20260902061043 61 197 0.0 3.0 0.00 0.00 0.00 76 1012.1
20260902060540 61 197 0.0 3.0 0.00 0.00 0.00 76 1012.2
20260902060057 61 197 1.0 3.0 0.00 0.00 0.00 75 1012.2
20260902055544 61 196 1.0 3.0 0.00 0.00 0.00 75 1012.2
20260902055041 62 0 1.0 3.0 0.00 0.00 0.00 75 1012.3
20260902054600 62 196 1.0 3.0 0.00 0.00 0.00 75 1012.4
20260902054042 62 196 1.0 5.0 0.00 0.00 0.00 75 1012.4
20260902053540 62 157 1.0 5.0 0.00 0.00 0.00 75 1012.5
20260902053051 62 159 0.0 4.0 0.00 0.00 0.00 75 1012.5
20260902052540 62 0 0.0 4.0 0.00 0.00 0.00 74 1012.5
20260902052040 62 0 0.0 3.0 0.00 0.00 0.00 74 1012.4
20260902051559 62 0 1.0 3.0 0.00 0.00 0.00 74 1012.4
20260902051042 62 0 0.0 3.0 0.00 0.00 0.00 74 1012.5
20260902050537 62 151 1.0 6.0 0.00 0.00 0.00 74 1012.5
20260902050104 62 194 1.0 6.0 0.00 0.00 0.00 74 1012.5
20260902045545 62 219 1.0 4.0 0.00 0.00 0.00 74 1012.4
20260902045038 62 219 1.0 4.0 0.00 0.00 0.00 74 1012.5
20260902044554 62 238 1.0 5.0 0.00 0.00 0.00 74 1012.4
20260902044039 62 212 1.0 5.0 0.00 0.00 0.00 74 1012.4
20260902043538 62 269 1.0 4.0 0.00 0.00 0.00 74 1012.5
20260902043053 62 194 1.0 4.0 0.00 0.00 0.00 74 1012.4
20260902042540 62 183 1.0 6.0 0.00 0.00 0.00 74 1012.4
20260902042040 62 172 1.0 6.0 0.00 0.00 0.00 74 1012.4
20260902041606 62 172 1.0 6.0 0.00 0.00 0.00 74 1012.3
20260902041039 62 203 1.0 3.0 0.00 0.00 0.00 74 1012.4
20260902040540 62 0 1.0 2.0 0.00 0.00 0.00 74 1012.4
20260902040057 63 0 0.0 3.0 0.00 0.00 0.00 74 1012.3
20260902035542 63 203 0.0 5.0 0.00 0.00 0.00 74 1012.3
20260902035039 63 203 1.0 5.0 0.00 0.00 0.00 74 1012.3
20260902034556 63 171 2.0 4.0 0.00 0.00 0.00 74 1012.3
20260902034038 63 234 1.0 6.0 0.00 0.00 0.00 74 1012.2
20260902033540 63 219 1.0 7.0 0.00 0.00 0.00 74 1012.3
20260902033110 63 201 1.0 7.0 0.00 0.00 0.00 73 1012.3
20260902032540 63 190 1.0 6.0 0.00 0.00 0.00 73 1012.3
20260902032040 63 183 2.0 6.0 0.00 0.00 0.00 73 1012.2
20260902031558 63 174 1.0 4.0 0.00 0.00 0.00 73 1012.3
20260902031039 63 202 0.0 3.0 0.00 0.00 0.00 73 1012.2
20260902030538 63 202 1.0 3.0 0.00 0.00 0.00 72 1012.2
20260902030054 63 201 1.0 3.0 0.00 0.00 0.00 72 1012.1
20260902025540 63 182 1.0 4.0 0.00 0.00 0.00 72 1012.2
20260902025038 64 182 1.0 4.0 0.00 0.00 0.00 72 1012.2
20260902024601 64 158 1.0 4.0 0.00 0.00 0.00 72 1012.3
20260902024038 64 190 1.0 4.0 0.00 0.00 0.00 71 1012.3
20260902023538 64 204 1.0 4.0 0.00 0.00 0.00 71 1012.1
20260902023114 64 200 1.0 6.0 0.00 0.00 0.00 71 1012.1
20260902022614 64 190 2.0 6.0 0.00 0.00 0.00 70 1012.1
20260902022039 64 186 0.0 5.0 0.00 0.00 0.00 70 1012.0
20260902021612 65 186 1.0 5.0 0.00 0.00 0.00 70 1012.0
20260902021039 65 170 1.0 4.0 0.00 0.00 0.00 70 1011.9
20260902020541 65 188 1.0 4.0 0.00 0.00 0.00 69 1011.8
20260902020106 65 188 1.0 4.0 0.00 0.00 0.00 69 1011.9
20260902015540 65 161 1.0 4.0 0.00 0.00 0.00 69 1012.0
20260902015037 65 215 1.0 4.0 0.00 0.00 0.00 68 1011.8
20260902014600 65 0 1.0 5.0 0.00 0.00 0.00 68 1011.8
20260902014042 66 186 2.0 6.0 0.00 0.00 0.00 68 1011.8
20260902013538 66 216 2.0 6.0 0.00 0.00 0.00 67 1011.8
20260902013100 66 179 1.0 4.0 0.00 0.00 0.00 66 1011.8
20260902012537 66 179 1.0 4.0 0.00 0.00 0.00 66 1011.8
20260902012042 66 178 1.0 4.0 0.00 0.00 0.00 66 1011.8
20260902011555 66 178 1.0 6.0 0.00 0.00 0.00 66 1011.8
20260902011041 66 174 2.0 6.0 0.00 0.00 0.00 66 1011.7
20260902010541 66 185 2.0 6.0 0.00 0.00 0.00 65 1011.7
20260902010100 66 192 2.0 6.0 0.00 0.00 0.00 65 1011.7
20260902005537 66 180 2.0 8.0 0.00 0.00 0.00 65 1011.7
20260902005041 67 200 3.0 8.0 0.00 0.00 0.00 64 1011.6
20260902004605 67 0 1.0 6.0 0.00 0.00 0.00 64 1011.6
20260902004037 67 178 1.0 6.0 0.00 0.00 0.00 64 1011.6
20260902003538 67 182 2.0 5.0 0.00 0.00 0.00 64 1011.5
20260902003104 67 174 1.0 8.0 0.00 0.00 0.00 64 1011.5
20260902002538 68 175 2.0 8.0 0.00 0.00 0.00 63 1011.4
20260902002043 68 165 1.0 4.0 0.00 0.00 0.00 63 1011.4
20260902001556 68 169 0.0 5.0 0.00 0.00 0.00 63 1011.4
20260902001040 68 161 1.0 6.0 0.00 0.00 0.00 63 1011.3
20260902000538 68 175 1.0 6.0 0.00 0.00 0.00 63 1011.2
20260902000058 68 180 1.0 5.0 0.00 0.00 0.00 63 1011.3
20260901235537 68 191 1.0 4.0 0.00 0.00 0.00 63 1011.3
20260901235038 68 112 1.0 5.0 0.00 0.00 0.00 63 1011.4
20260901234609 68 126 1.0 5.0 0.00 0.00 0.00 63 1011.4
20260901234040 68 129 1.0 6.0 0.00 0.00 0.00 63 1011.4
20260901233538 68 127 1.0 6.0 0.00 0.00 0.00 64 1011.4
20260901233103 68 211 2.0 6.0 0.00 0.00 0.00 63 1011.5
20260901232542 68 186 1.0 6.0 0.00 0.00 0.00 63 1011.5
20260901232041 68 190 1.0 6.0 0.00 0.00 0.00 63 1011.5
20260901231558 68 191 2.0 6.0 0.00 0.00 0.00 63 1011.5
20260901231041 68 215 1.0 7.0 0.00 0.00 0.00 64 1011.5
20260901230539 68 176 2.0 7.0 0.00 0.00 0.00 64 1011.5
20260901230135 68 182 1.0 5.0 0.00 0.00 0.00 64 1011.5
20260901225538 68 194 0.0 5.0 0.00 0.00 0.00 63 1011.5
20260901225038 68 221 1.0 5.0 0.00 0.00 0.00 63 1011.6
20260901224601 68 0 0.0 5.0 0.00 0.00 0.00 63 1011.6
20260901224041 68 136 1.0 7.0 0.00 0.00 0.00 62 1011.5
20260901223538 68 178 1.0 7.0 0.00 0.00 0.00 62 1011.6
20260901223111 68 198 1.0 8.0 0.00 0.00 0.00 61 1011.5
20260901222538 68 132 3.0 8.0 0.00 0.00 0.00 61 1011.5
20260901222037 69 171 2.0 8.0 0.00 0.00 0.00 61 1011.5
20260901221556 68 0 2.0 8.0 0.00 0.00 0.00 62 1011.5
20260901221039 68 64 1.0 4.0 0.00 0.00 0.00 62 1011.6
20260901220538 68 181 2.0 6.0 0.00 0.00 0.00 62 1011.6
20260901220108 68 190 2.0 6.0 0.00 0.00 0.00 62 1011.6
20260901215539 68 142 2.0 7.0 0.00 0.00 0.00 62 1011.5
20260901215038 68 188 1.0 7.0 0.00 0.00 0.00 63 1011.6
20260901214600 68 188 3.0 7.0 0.00 0.00 0.00 62 1011.5
20260901214038 68 154 2.0 6.0 0.00 0.00 0.00 62 1011.5
20260901213538 68 171 0.0 9.0 0.00 0.00 0.00 62 1011.7
20260901213059 68 180 2.0 9.0 0.00 0.00 0.00 62 1011.6
20260901212542 68 164 1.0 9.0 0.00 0.00 0.00 62 1011.7
20260901212039 69 175 3.0 8.0 0.00 0.00 0.00 60 1011.7
20260901211556 70 82 2.0 9.0 0.00 0.00 0.00 60 1011.6
20260901211040 70 109 1.0 9.0 0.00 0.00 0.00 60 1011.5
20260901210542 70 176 4.0 9.0 0.00 0.00 0.00 60 1011.7
20260901210059 70 288 2.0 9.0 0.00 0.00 0.00 62 1011.7
20260901205539 69 79 2.0 9.0 0.00 0.00 0.00 63 1011.6
20260901205039 69 0 4.0 8.0 0.00 0.00 0.00 62 1011.7
20260901204558 69 176 2.0 7.0 0.00 0.00 0.00 62 1011.8
20260901204043 71 225 2.0 7.0 0.00 0.00 0.00 61 1011.8
20260901203541 70 175 1.0 7.0 0.00 0.00 0.00 64 1011.9
20260901203056 68 119 2.0 7.0 0.00 0.00 0.00 67 1011.8
20260901202540 67 170 1.0 6.0 0.00 0.00 0.00 69 1011.9
20260901202038 66 157 1.0 5.0 0.00 0.00 0.00 69 1012.0
20260901201550 66 162 1.0 9.0 0.00 0.00 0.00 69 1012.0
20260901201039 65 171 2.0 9.0 0.00 0.00 0.00 70 1012.1
20260901200539 65 211 1.0 7.0 0.00 0.00 0.00 70 1012.1
20260901200106 65 167 1.0 6.0 0.00 0.00 0.00 70 1012.1
20260901195538 65 169 2.0 6.0 0.00 0.00 0.00 71 1012.1
20260901195040 64 171 1.0 9.0 0.00 0.00 0.00 73 1012.2
20260901194607 64 0 2.0 9.0 0.00 0.00 0.00 73 1012.2
20260901194038 64 166 1.0 6.0 0.00 0.00 0.00 73 1012.3
20260901193541 64 178 1.0 6.0 0.00 0.00 0.00 73 1012.3
20260901193058 64 170 2.0 8.0 0.00 0.00 0.00 73 1012.3
20260901192538 64 166 2.0 8.0 0.00 0.00 0.00 73 1012.3
20260901192040 64 156 1.0 4.0 0.00 0.00 0.00 74 1012.5
20260901191603 64 0 1.0 5.0 0.00 0.00 0.00 74 1012.5
20260901191041 64 163 1.0 5.0 0.00 0.00 0.00 74 1012.4
20260901190538 64 173 2.0 5.0 0.00 0.00 0.00 75 1012.5
20260901190111 63 216 0.0 3.0 0.00 0.00 0.00 76 1012.4
20260901185539 63 178 1.0 4.0 0.00 0.00 0.00 76 1012.5
20260901185043 63 197 1.0 5.0 0.00 0.00 0.00 76 1012.6
20260901184602 63 0 0.0 5.0 0.00 0.00 0.00 76 1012.7
20260901184040 63 181 2.0 5.0 0.00 0.00 0.00 75 1012.8
20260901183545 64 175 1.0 8.0 0.00 0.00 0.00 75 1012.7
20260901183110 64 167 1.0 8.0 0.00 0.00 0.00 75 1012.7
20260901182541 64 0 0.0 5.0 0.00 0.00 0.00 76 1012.8
20260901182042 63 0 1.0 5.0 0.00 0.00 0.00 77 1012.7
20260901181604 63 175 2.0 5.0 0.00 0.00 0.00 77 1012.7
20260901181038 63 177 1.0 7.0 0.00 0.00 0.00 77 1012.8
20260901180538 62 0 1.0 7.0 0.00 0.00 0.00 79 1012.8
20260901180108 62 161 2.0 7.0 0.00 0.00 0.00 78 1012.9
20260901175543 61 195 2.0 6.0 0.00 0.00 0.00 79 1012.9
20260901175039 61 175 1.0 5.0 0.00 0.00 0.00 80 1013.0
20260901174601 61 0 0.0 3.0 0.00 0.00 0.00 82 1012.9
20260901174039 61 0 1.0 3.0 0.00 0.00 0.00 82 1013.0
20260901173540 60 186 0.0 1.0 0.00 0.00 0.00 82 1012.9
20260901173111 60 0 0.0 1.0 0.00 0.00 0.00 82 1012.8
20260901172539 60 0 0.0 2.0 0.00 0.00 0.00 82 1012.8
20260901172042 60 0 0.0 2.0 0.00 0.00 0.00 82 1012.8
20260901171608 60 0 0.0 2.0 0.00 0.00 0.00 82 1012.6
20260901171043 60 186 0.0 3.0 0.00 0.00 0.00 82 1012.7
20260901170539 60 0 0.0 3.0 0.00 0.00 0.00 82 1012.6
20260901170106 60 186 0.0 4.0 0.00 0.00 0.00 82 1012.6
20260901165538 60 0 0.0 4.0 0.00 0.00 0.00 82 1012.6
20260901165041 60 123 1.0 5.0 0.00 0.00 0.00 82 1012.7
20260901164633 60 173 1.0 5.0 0.00 0.00 0.00 82 1012.7
20260901164040 60 254 1.0 5.0 0.00 0.00 0.00 82 1012.7
20260901163542 60 0 1.0 4.0 0.00 0.00 0.00 83 1012.7
20260901163059 59 0 1.0 4.0 0.00 0.00 0.00 83 1012.7
20260901162538 59 0 1.0 4.0 0.00 0.00 0.00 83 1012.7
20260901162038 59 174 1.0 3.0 0.00 0.00 0.00 82 1012.7
20260901161554 59 205 1.0 5.0 0.00 0.00 0.00 82 1012.7
20260901161039 59 191 1.0 5.0 0.00 0.00 0.00 82 1012.7
20260901160538 59 194 1.0 3.0 0.00 0.00 0.00 82 1012.7
20260901160100 59 196 1.0 4.0 0.00 0.00 0.00 81 1012.6
20260901155539 59 199 1.0 6.0 0.00 0.00 0.00 81 1012.7
20260901155039 59 217 2.0 6.0 0.00 0.00 0.00 81 1012.7
20260901154551 59 171 1.0 4.0 0.00 0.00 0.00 81 1012.7
20260901154039 60 186 1.0 5.0 0.00 0.00 0.00 81 1012.6
20260901153539 59 186 0.0 5.0 0.00 0.00 0.00 80 1012.7
20260901153103 60 184 1.0 2.0 0.00 0.00 0.00 80 1012.6
20260901152538 60 183 0.0 3.0 0.00 0.00 0.00 80 1012.5
20260901152039 59 183 1.0 3.0 0.00 0.00 0.00 80 1012.6
20260901151558 59 184 1.0 3.0 0.00 0.00 0.00 80 1012.4
20260901151039 59 184 1.0 3.0 0.00 0.00 0.00 80 1012.4
20260901150538 59 0 0.0 2.0 0.00 0.00 0.00 80 1012.3
20260901150054 59 0 0.0 2.0 0.00 0.00 0.00 80 1012.4
20260901145544 59 0 0.0 2.0 0.00 0.00 0.00 80 1012.3
20260901145039 59 192 0.0 3.0 0.00 0.00 0.00 80 1012.3
20260901144605 59 192 1.0 3.0 0.00 0.00 0.00 80 1012.2
20260901144041 59 192 1.0 3.0 0.00 0.00 0.00 80 1012.2
20260901143541 59 195 1.0 3.0 0.00 0.00 0.00 81 1012.2
20260901143103 59 0 0.0 3.0 0.00 0.00 0.00 81 1012.2
20260901142540 59 191 1.0 3.0 0.00 0.00 0.00 81 1012.2
20260901142038 59 192 1.0 5.0 0.00 0.00 0.00 81 1012.2
20260901141604 59 189 1.0 5.0 0.00 0.00 0.00 81 1012.1
20260901141039 59 180 1.0 3.0 0.00 0.00 0.00 81 1012.2
20260901140540 59 179 1.0 4.0 0.00 0.00 0.00 81 1012.1
20260901140100 59 179 2.0 5.0 0.00 0.00 0.00 81 1012.2
20260901135539 59 0 1.0 5.0 0.00 0.00 0.00 81 1012.2
20260901135041 59 175 1.0 5.0 0.00 0.00 0.00 81 1012.2
20260901134600 59 153 1.0 5.0 0.00 0.00 0.00 81 1012.1
20260901134039 59 203 1.0 5.0 0.00 0.00 0.00 81 1012.1
20260901133539 59 185 1.0 5.0 0.00 0.00 0.00 81 1012.1
20260901133053 59 179 0.0 3.0 0.00 0.00 0.00 81 1012.1
20260901132541 59 0 0.0 4.0 0.00 0.00 0.00 81 1012.1
20260901132039 59 0 1.0 5.0 0.00 0.00 0.00 81 1012.1
20260901131611 59 179 1.0 5.0 0.00 0.00 0.00 81 1012.0
20260901131039 59 213 1.0 3.0 0.00 0.00 0.00 81 1012.0
20260901130539 59 213 1.0 4.0 0.00 0.00 0.00 81 1012.0
20260901130059 59 209 1.0 4.0 0.00 0.00 0.00 81 1012.0
20260901125539 59 216 0.0 4.0 0.00 0.00 0.00 81 1011.9
20260901125039 59 215 1.0 4.0 0.00 0.00 0.00 81 1011.9
20260901124604 58 178 1.0 4.0 0.00 0.00 0.00 81 1011.9
20260901124040 58 189 1.0 5.0 0.00 0.00 0.00 81 1011.8
20260901123543 58 183 1.0 5.0 0.00 0.00 0.00 82 1011.8
20260901123104 58 165 1.0 5.0 0.00 0.00 0.00 82 1011.9
20260901122539 58 207 0.0 4.0 0.00 0.00 0.00 82 1011.8
20260901122038 58 180 1.0 5.0 0.00 0.00 0.00 82 1011.9
20260901121613 58 180 1.0 6.0 0.00 0.00 0.00 82 1011.9
20260901121038 58 228 2.0 6.0 0.00 0.00 0.00 82 1011.9
20260901120540 58 0 2.0 4.0 0.00 0.00 0.00 82 1011.9
20260901120111 58 212 2.0 3.0 0.00 0.00 0.00 82 1011.9
20260901115539 58 242 0.0 5.0 0.00 0.00 0.00 82 1011.9
20260901115039 58 192 0.0 5.0 0.00 0.00 0.00 82 1012.0
20260901114601 58 175 1.0 6.0 0.00 0.00 0.00 82 1011.9
20260901114038 58 196 1.0 6.0 0.00 0.00 0.00 82 1012.0
20260901113539 58 172 1.0 4.0 0.00 0.00 0.00 83 1012.0
20260901113053 58 200 1.0 4.0 0.00 0.00 0.00 83 1011.9
20260901112539 58 198 1.0 5.0 0.00 0.00 0.00 83 1011.9
20260901112038 57 208 1.0 5.0 0.00 0.00 0.00 83 1011.9
20260901111610 57 175 1.0 4.0 0.00 0.00 0.00 83 1011.8
20260901111041 57 0 0.0 4.0 0.00 0.00 0.00 83 1011.8
20260901110540 57 0 1.0 4.0 0.00 0.00 0.00 83 1011.8
20260901105539 57 216 0.0 5.0 0.00 0.00 0.00 83 1011.8
20260901105040 57 217 1.0 5.0 0.00 0.00 0.00 83 1011.7
20260901104556 57 244 0.0 4.0 0.00 0.00 0.00 83 1011.6
20260901104039 57 189 1.0 4.0 0.00 0.00 0.00 83 1011.6
20260901103539 57 205 1.0 4.0 0.00 0.00 0.00 83 1011.6
20260901103111 57 198 1.0 5.0 0.00 0.00 0.00 83 1011.6
20260901102538 57 209 2.0 6.0 0.00 0.00 0.00 82 1011.6
20260901102038 57 184 2.0 7.0 0.00 0.00 0.00 82 1011.6
20260901101602 57 182 2.0 7.0 0.00 0.00 0.00 82 1011.5
20260901101039 58 204 1.0 5.0 0.00 0.00 0.00 82 1011.5
20260901100539 58 233 2.0 5.0 0.00 0.00 0.00 82 1011.5
20260901100056 58 175 2.0 5.0 0.00 0.00 0.00 82 1011.5
20260901095538 58 207 1.0 4.0 0.00 0.00 0.00 81 1011.6
20260901095039 58 179 1.0 4.0 0.00 0.00 0.00 81 1011.5
20260901094600 58 180 2.0 5.0 0.00 0.00 0.00 81 1011.4
20260901094038 58 193 1.0 6.0 0.00 0.00 0.00 81 1011.4
20260901093539 58 167 2.0 7.0 0.00 0.00 0.00 81 1011.5
20260901093127 58 190 2.0 7.0 0.00 0.00 0.00 81 1011.4
20260901092539 58 197 2.0 7.0 0.00 0.00 0.00 81 1011.3
20260901092039 58 185 2.0 6.0 0.00 0.00 0.00 81 1011.3
20260901091603 58 209 2.0 6.0 0.00 0.00 0.00 81 1011.2
20260901091038 58 173 1.0 5.0 0.00 0.00 0.00 80 1011.1
20260901090541 59 175 2.0 4.0 0.00 0.00 0.00 80 1011.1
20260901090052 59 173 1.0 5.0 0.00 0.00 0.00 80 1011.1
20260901085540 59 172 2.0 5.0 0.00 0.00 0.00 80 1010.9
20260901085039 59 199 1.0 2.0 0.00 0.00 0.00 80 1010.8
20260901084558 59 199 0.0 3.0 0.00 0.00 0.00 80 1010.8
20260901084039 59 0 0.0 3.0 0.00 0.00 0.00 80 1010.7
20260901083543 59 186 0.0 5.0 0.00 0.00 0.00 80 1010.7
20260901083059 59 185 1.0 5.0 0.00 0.00 0.00 80 1010.8